Simultaneous Nadir Overpasses (SNOs) Predictions

Prediction of SNOs between GOES-14 and NOAA-20 Satellite Orbit:

Table of predicted SNOs for the next 14.0 days since TLE Epoch: 10/12/2018
Index Date Time (GOES-14) GOES-14 Lat,Lon NOAA-20 Lat,Lon Distance(km) Time Diff (sec)
1 10/12/2018 20:32:55 -0.24,-104.10 -0.98,-107.31 365.99 80
2 10/13/2018 20:16:50 -0.25,-104.11 0.05,-102.78 151.30 80
3 10/15/2018 08:38:39 0.22,-104.12 1.11,-108.06 448.26 80
4 10/16/2018 08:17:14 0.23,-104.11 0.09,-103.53 67.30 80
5 10/18/2018 20:20:26 -0.22,-104.09 -0.24,-104.30 23.54 80
6 10/19/2018 20:04:21 -0.23,-104.10 0.72, -99.76 493.99 80
7 10/21/2018 08:26:09 0.20,-104.13 0.43,-105.03 104.05 80
8 10/22/2018 08:04:44 0.21,-104.12 -0.60,-100.50 411.81 80
9 10/23/2018 20:26:41 -0.19,-104.08 -0.58,-105.81 197.47 80
10 10/24/2018 20:10:36 -0.20,-104.08 0.45,-101.28 320.05 80
11 10/26/2018 08:32:25 0.17,-104.14 0.70,-106.56 275.04 80




NCC Satellite Simultaneous Nadir Overpasses (SNOs) Prediction Service
